Rochester, MN

1:06 AM CDT on May 28, 2017 (GMT -0500)
Rochester International

Weather History for KRST - October, 2012

Change the Weather History Date:

Wednesday, October 24, 2012

  Actual Average Record
Temperature  
Mean Temperature 64 °F 45 °F  
Max Temperature 72 °F 55 °F 76 °F (1963)
Min Temperature 55 °F 36 °F 12 °F (1936)
Degree Days  
Heating Degree Days 1 20  
Month to date heating degree days 318 371  
Since 1 July heating degree days 488 586  
Cooling Degree Days 0 0  
Month to date cooling degree days 0 4  
Year to date cooling degree days 888 583  
Growing Degree Days 14 (Base 50)    
Moisture  
Dew Point 58 °F    
Average Humidity 87    
Maximum Humidity 93    
Minimum Humidity 81    
Precipitation  
Precipitation 0.02 in 0.06 in 1.18 in (1946)
Month to date precipitation 1.01 1.81  
Year to date precipitation 21.71 29.45  
Snow  
Snow 0.00 in 0.00 in 1.40 in (1981)
Month to date snowfall 0.0 0.4  
Since 1 July snowfall 0.0 0.4  
Snow Depth 0.00 in    
Sea Level Pressure  
Sea Level Pressure 29.76 in    
Wind  
Wind Speed 8 mph (North)    
Max Wind Speed 18 mph    
Max Gust Speed 21 mph    
Visibility 2 miles    
Events Fog , Rain    
T = Trace of Precipitation, MM = Missing Value Source: NWS Daily Summary

Daily Weather History Graph

Daily Weather History Graph

Search for Another Location

Airport or City:

Trip Planner

Search our weather history database for the weather conditions in past years. The results will help you decide how hot, cold, wet, or windy it might be!

Date:

Astronomy

Oct. 24, 2012 Rise Set
Actual Time 7:36 AM CDT 6:11 PM CDT
Civil Twilight 7:06 AM CDT 6:40 PM CDT
Nautical Twilight 6:33 AM CDT 7:14 PM CDT
Astronomical Twilight 5:59 AM CDT 7:47 PM CDT
Moon 3:35 PM CDT (10/24) 2:22 AM CDT (10/24)
Length of Visible Light 11h 33m
Length of Day
10h 34m
Waxing Gibbous, 76% of the Moon is Illuminated
Oct 24
Waxing Gibbous
Oct 29
Full
Nov 6
Last Quarter
Nov 13
New
Nov 20
First Quarter

Hourly Weather History & Observations

Time (CDT) Temp. Dew Point Humidity Pressure Visibility Wind Dir Wind Speed Gust Speed Precip Events Conditions
12:54 AM 66.0 °F 61.0 °F 84% 29.78 in 6.0 mi SSE 6.9 mph - N/A   Haze
1:52 AM 64.4 °F 60.8 °F 88% 29.81 in 5.0 mi WNW 6.9 mph - N/A   Haze
1:54 AM 64.9 °F 60.1 °F 84% 29.80 in 5.0 mi WNW 3.5 mph - N/A   Haze
2:01 AM 66.2 °F 60.8 °F 83% 29.81 in 5.0 mi Calm Calm - N/A   Haze
2:54 AM 66.0 °F 61.0 °F 84% 29.79 in 5.0 mi Calm Calm - N/A   Haze
3:54 AM 64.9 °F 61.0 °F 87% 29.79 in 4.0 mi SE 4.6 mph - N/A   Overcast
4:54 AM 66.0 °F 61.0 °F 84% 29.79 in 4.0 mi Calm Calm - N/A   Haze
5:54 AM 64.9 °F 61.0 °F 87% 29.81 in 2.5 mi North 3.5 mph - N/A   Overcast
5:58 AM 64.4 °F 60.8 °F 88% 29.82 in 1.8 mi NNW 5.8 mph - N/A   Overcast
6:07 AM 62.6 °F 59.0 °F 88% 29.83 in 1.2 mi North 11.5 mph - 0.00 in Rain Light Rain
6:54 AM 60.1 °F 57.0 °F 90% 29.83 in 1.2 mi North 6.9 mph - 0.01 in Rain Light Rain
7:30 AM 60.8 °F 57.2 °F 88% 29.83 in 0.5 mi North 6.9 mph - 0.00 in Rain Light Rain
7:46 AM 60.8 °F 55.4 °F 82% 29.84 in 0.5 mi North 8.1 mph - 0.00 in Rain Light Rain
7:54 AM 60.1 °F 55.9 °F 86% 29.84 in 0.5 mi North 8.1 mph - 0.00 in Rain Light Rain
8:04 AM 60.8 °F 55.4 °F 82% 29.85 in 0.2 mi North 6.9 mph - 0.00 in Fog , Rain Light Rain
8:37 AM 60.8 °F 57.2 °F 88% 29.83 in 0.2 mi NNE 9.2 mph - 0.00 in Fog , Rain Light Rain
8:54 AM 61.0 °F 57.0 °F 87% 29.83 in 0.2 mi NNE 8.1 mph - 0.00 in Fog , Rain Light Rain
9:17 AM 60.8 °F 57.2 °F 88% 29.83 in 0.2 mi NNE 9.2 mph - 0.00 in Fog , Rain Light Rain
9:54 AM 61.0 °F 57.9 °F 90% 29.81 in 0.2 mi NNE 9.2 mph - 0.00 in Fog , Rain Light Rain
10:54 AM 62.1 °F 57.9 °F 86% 29.81 in 0.2 mi NNE 6.9 mph - 0.00 in Fog , Rain Light Rain
11:54 AM 62.1 °F 59.0 °F 90% 29.80 in 0.2 mi NNE 6.9 mph - 0.00 in Fog , Rain Light Rain
12:08 PM 62.6 °F 59.0 °F 88% 29.80 in 0.2 mi NNE 5.8 mph - 0.00 in Fog , Rain Light Rain
12:38 PM 62.6 °F 59.0 °F 88% 29.79 in 0.2 mi NNE 4.6 mph - 0.00 in Fog , Rain Light Rain
12:54 PM 63.0 °F 59.0 °F 87% 29.78 in 0.2 mi NNE 4.6 mph - 0.00 in Fog , Rain Light Rain
1:33 PM 62.6 °F 60.8 °F 94% 29.76 in 0.2 mi NNE 5.8 mph - 0.01 in Fog , Rain Light Rain
1:54 PM 63.0 °F 60.1 °F 90% 29.74 in 0.2 mi NE 6.9 mph - 0.01 in Fog , Rain Light Rain
2:54 PM 64.9 °F 62.1 °F 90% 29.72 in 0.2 mi East 4.6 mph - 0.00 in Fog , Rain Light Rain
3:22 PM 66.2 °F 62.6 °F 88% 29.71 in 0.2 mi East 6.9 mph - 0.00 in Fog , Rain Light Rain
3:40 PM 68.0 °F 64.4 °F 88% 29.71 in 1.0 mi ESE 5.8 mph - 0.00 in Rain Light Rain
3:54 PM 69.1 °F 64.9 °F 87% 29.70 in 1.8 mi SE 6.9 mph - 0.00 in Rain Light Rain
3:56 PM 69.8 °F 64.4 °F 83% 29.71 in 2.0 mi SE 5.8 mph - 0.00 in Rain Light Rain
4:07 PM 69.8 °F 66.2 °F 88% 29.71 in 2.5 mi SSE 10.4 mph - 0.00 in   Overcast
4:09 PM 69.8 °F 64.4 °F 83% 29.71 in 3.0 mi SSE 9.2 mph - 0.00 in   Haze
4:20 PM 69.8 °F 64.4 °F 83% 29.71 in 4.0 mi South 9.2 mph - 0.00 in   Haze
4:27 PM 71.6 °F 66.2 °F 83% 29.71 in 4.0 mi South 10.4 mph - 0.00 in   Haze
4:42 PM 71.6 °F 66.2 °F 83% 29.71 in 6.0 mi South 15.0 mph - 0.00 in   Haze
4:54 PM 72.0 °F 64.9 °F 78% 29.69 in 7.0 mi South 16.1 mph - 0.00 in   Mostly Cloudy
5:34 PM 68.0 °F 62.6 °F 83% 29.72 in 4.0 mi West 11.5 mph - N/A   Haze
5:54 PM 64.0 °F 60.1 °F 87% 29.71 in 3.0 mi NW 11.5 mph - 0.00 in   Overcast
6:36 PM 62.6 °F 57.2 °F 82% 29.74 in 2.5 mi WNW 9.2 mph - 0.00 in   Overcast
6:44 PM 60.8 °F 57.2 °F 88% 29.74 in 3.0 mi NW 9.2 mph - 0.00 in   Overcast
6:54 PM 61.0 °F 57.0 °F 87% 29.73 in 3.0 mi NW 11.5 mph - 0.00 in   Overcast
7:05 PM 60.8 °F 57.2 °F 88% 29.74 in 2.5 mi NW 10.4 mph - N/A   Overcast
7:36 PM 59.0 °F 55.4 °F 88% 29.74 in 4.0 mi NNW 10.4 mph - N/A   Overcast
7:49 PM 59.0 °F 55.4 °F 88% 29.74 in 2.5 mi NNW 11.5 mph - N/A   Overcast
7:54 PM 59.0 °F 55.0 °F 87% 29.74 in 3.0 mi North 10.4 mph - N/A   Overcast
8:23 PM 59.0 °F 55.4 °F 88% 29.75 in 2.5 mi NNW 8.1 mph - N/A   Overcast
8:37 PM 59.0 °F 55.4 °F 88% 29.74 in 1.5 mi North 9.2 mph - 0.00 in Rain Light Rain
8:44 PM 57.2 °F 55.4 °F 94% 29.74 in 1.2 mi NNW 10.4 mph - 0.00 in   Overcast
8:54 PM 57.9 °F 55.0 °F 90% 29.73 in 0.8 mi NNW 9.2 mph - 0.00 in   Mist
9:05 PM 57.2 °F 53.6 °F 88% 29.74 in 1.2 mi NNW 13.8 mph - N/A   Overcast
9:18 PM 57.2 °F 53.6 °F 88% 29.73 in 0.8 mi NNW 12.7 mph - N/A   Mist
9:29 PM 57.2 °F 53.6 °F 88% 29.73 in 1.5 mi NNW 12.7 mph - N/A   Overcast
9:34 PM 57.2 °F 53.6 °F 88% 29.73 in 3.0 mi NNW 11.5 mph - N/A   Overcast
9:54 PM 57.0 °F 53.1 °F 87% 29.72 in 8.0 mi North 13.8 mph - N/A   Overcast
10:54 PM 57.0 °F 53.1 °F 87% 29.71 in 2.0 mi NNE 12.7 mph - N/A   Overcast
10:56 PM 57.2 °F 53.6 °F 88% 29.72 in 1.2 mi North 9.2 mph - N/A   Overcast
11:05 PM 57.2 °F 53.6 °F 88% 29.72 in 0.5 mi NNE 8.1 mph - N/A Fog Fog
11:22 PM 57.2 °F 53.6 °F 88% 29.71 in 1.5 mi NNE 10.4 mph - N/A   Overcast
11:31 PM 57.2 °F 53.6 °F 88% 29.71 in 2.5 mi North 9.2 mph - N/A   Overcast
11:41 PM 57.2 °F 53.6 °F 88% 29.71 in 3.0 mi North 8.1 mph - 0.00 in Rain Light Rain
11:54 PM 57.0 °F 53.1 °F 87% 29.69 in 3.0 mi North 9.2 mph - 0.00 in   Overcast